OpenBCM V1.13 (Linux)

Packet Radio Mailbox

DB0FHN

[JN59NK Nuernberg]

 Login: GUEST





  
LU1HVK > KEP      09.10.19 08:34l 244 Lines 12026 Bytes #999 (0) @ WW
BID : 32984_LU1HVK
Read: DJ6UX GUEST
Subj: TLE 09 10
Path: DB0FHN<DB0BLO<DB0ERF<DB0RES<WA7V<XE1FH<VE2PKT<N3HYM<LU3DVN<LU9HGS<
      LU1HVK
Sent: 191009/0523Z 32984@LU1HVK.2594.CBA.ARG.SA LinBPQ6.0.19

                         _    _   _ _ _   ___     ___  __
                        | |  | | | / | | | \ \   / / |/ /
                        | |  | | | | | |_| |\ \ / /| ' /
                        | |__| |_| | |  _  | \ V / | . \
                        |_____\___/|_|_| |_|  \_/  |_|\_\

     BBS/NODO - CORDOBA (LEONES-FF87UH) - LU1HVK-4 NODO - LU1HVK-3 APRS

+----------------------------------------------------------------------------+
OSCAR 7
1  7530U 74089B   19281.90719649 -.00000024 +00000-0 +12985-3 0  9994
2  7530 101.7589 248.4725 0012325 129.1209 293.4734 12.53640207054345
OSCAR 11 (UoSAT 2)
1 14781U 84021B   19281.62930032 +.00000066 +00000-0 +14238-4 0  9996
2 14781 097.6058 301.0194 0007427 320.1708 039.8961 14.83110634894353
OSCAR 19 (LUSAT)
1 20442U 90005G   19281.88103160 +.00000014 +00000-0 +21279-4 0  9994
2 20442 098.6573 223.7363 0011759 173.4432 186.6907 14.32934505552381
EYESAT A
1 22825U 93061C   19281.93609227 +.00000012 +00000-0 +22624-4 0  9990
2 22825 098.9127 273.1824 0009067 037.9077 322.2741 14.30068053357724
ITAMSAT
1 22826U 93061D   19281.91159577 +.00000010 +00000-0 +21610-4 0  9999
2 22826 098.9068 273.1346 0009412 027.0988 333.0683 14.30402137357947
RADIO ROSTO
1 23439U 94085A   19281.88686814 -.00000038 +00000-0 +11435-3 0  9996
2 23439 064.8147 294.6910 0145258 091.3696 270.3872 11.27568205020540
JAS 2
1 24278U 96046B   19281.87070014 -.00000028 +00000-0 +10430-4 0  9999
2 24278 098.5546 060.1446 0349483 309.3061 047.7567 13.53093598142724
TECHSAT 1B
1 25397U 98043D   19281.78767665 -.00000011 +00000-0 +14517-4 0  9998
2 25397 098.6964 220.6103 0002378 078.7388 281.4058 14.23671825103602
ISS (ZARYA)
1 25544U 98067A   19282.01526620  .00001318  00000-0  30946-4 0  9993
2 25544  51.6442 156.8109 0007534 129.5066  74.3692 15.50181175192919
PCSAT
1 26931U 01043C   19281.78265378 -.00000019 +00000-0 +24519-4 0  9992
2 26931 067.0508 074.4276 0007438 269.0109 091.0140 14.30554463940933
SAUDISAT 1C
1 27607U 02058C   19281.84866173 -.00000004 +00000-0 +20283-4 0  9995
2 27607 064.5551 066.6863 0075493 234.7131 124.6895 14.75576898903450
CUTE-1
1 27844U 03031E   19281.93777527 +.00000056 +00000-0 +44920-4 0  9994
2 27844 098.6857 288.4782 0010877 068.8690 291.3649 14.22198157844201
CUBESAT XI 4
1 27848U 03031J   19281.82119258 +.00000043 +00000-0 +39375-4 0  9991
2 27848 098.6932 288.8865 0010839 079.7165 280.5234 14.21790725844041
MOZHAYETS 4
1 27939U 03042A   19281.92348769 +.00000020 +00000-0 +12158-4 0  9991
2 27939 098.0565 055.6555 0014159 074.8471 285.4299 14.66807753856990
CUBESAT XI 5
1 28895U 05043F   19281.89518736 +.00000131 +00000-0 +33948-4 0  9998
2 28895 097.9755 060.8859 0016707 002.2766 357.8510 14.63697370743667
CUTE-1.7+APD II
1 32785U 08021C   19281.75952761 +.00000176 +00000-0 +24643-4 0  9996
2 32785 097.5560 276.2226 0011586 249.2409 110.7567 14.88353682620280
DELFI C3
1 32789U 08021G   19281.69587392  .00000968  00000-0  68292-4 0  9994
2 32789  97.4534 327.9257 0013757 101.7034 258.5739 15.07154454623834
SEEDS
1 32791U 08021J   19281.72310008 +.00000150 +00000-0 +20538-4 0  9993
2 32791 097.5318 282.2631 0012259 219.6761 140.3562 14.90881836620728
YUBELEINY
1 32953U 08025A   19281.67808348  .00000020  00000-0  75656-4 0  9997
2 32953  82.4991  75.1119 0018796 244.1737 115.7404 12.43091420516224
PRISM (HITOMI)
1 33493U 09002B   19281.77778723 -.00000095  00000-0 -26704-5 0  9992
2 33493  98.1215 206.9840 0014960 167.5772 192.5820 14.96752633581911
KKS-1 (KISEKI)
1 33499U 09002H   19281.91084934 +.00000100 +00000-0 +22810-4 0  9996
2 33499 098.3419 124.1622 0008542 202.3858 157.6978 14.75467433575340
SWISSCUBE
1 35932U 09051B   19281.45248781  .00000124  00000-0  39124-4 0  9997
2 35932  98.5983  90.7725 0007668 174.8187 185.3090 14.56315605533046
BEESAT
1 35933U 09051C   19281.72357210 +.00000100 +00000-0 +33564-4 0  9992
2 35933 098.6002 092.8570 0005654 184.4464 175.6683 14.56400881533118
ITUPSAT 1
1 35935U 09051E   19281.70850309 +.00000098 +00000-0 +33770-4 0  9994
2 35935 098.6111 093.0707 0007974 185.2078 174.9036 14.55556662532901
XIWANG-1 (HOPE-1)
1 36122U 09072B   19281.69058695 -.00000053 +00000-0 -29762-4 0  9991
2 36122 100.0784 278.8256 0008011 086.9263 273.2768 13.16351397471611
TISAT 1
1 36799U 10035E   19281.88025669 +.00000173 +00000-0 +23595-4 0  9997
2 36799 098.1700 077.8569 0013574 079.7172 280.5575 14.91170989501283
JUGNU
1 37839U 11058B   19281.48606187  .00000324  00000-0  30635-4 0  9996
2 37839  19.9626  16.8373 0019003 118.9957 330.7634 14.12660748413087
SRMSAT
1 37841U 11058D   19281.47219291  .00000305  00000-0  22473-4 0  9994
2 37841  19.9726  76.0065 0011908 344.9129  47.2619 14.10640636412494
M-CUBED/EXP-1 PRIME
1 37855U 11061F   19281.84832610 +.00000808 +00000-0 +48096-4 0  9997
2 37855 101.7151 235.0238 0173029 104.2143 257.8357 15.05623062433182
HORYU 2
1 38340U 12025D   19281.79019961 +.00000145 +00000-0 +29203-4 0  9991
2 38340 098.3187 323.6837 0012631 124.1212 236.1197 14.75756528387281
STRAND 1
1 39090U 13009E   19281.62020995  .00000023  00000-0  23094-4 0  9995
2 39090  98.4777 125.6504 0008495 322.7410  37.3185 14.35099624346444
SOMP
1 39134U 13015E   19281.65188083 +.00001108 +00000-0 +59328-4 0  9991
2 39134 064.8648 017.6530 0036656 284.6444 075.0620 15.20375197357238
BEESAT 3
1 39135U 13015F   19281.70781655 +.00000780 +00000-0 +48036-4 0  9991
2 39135 064.8695 037.3592 0035861 293.4489 066.2868 15.17638276356851
BEESAT 2
1 39136U 13015G   19281.72159145 +.00000691 +00000-0 +44544-4 0  9998
2 39136 064.8701 041.4594 0027655 298.8603 060.9748 15.17056567356773
CUBEBUG 1
1 39153U 13018D   19281.81420095 +.00000163 +00000-0 +28137-4 0  9999
2 39153 097.9809 019.3254 0016752 190.6508 169.4352 14.80603853348327
ZACUBE
1 39417U 13066B   19281.91780731 +.00000183 +00000-0 +29342-4 0  9993
2 39417 097.5629 289.1130 0059620 027.4086 333.0251 14.81157327317655
TRITON 1
1 39427U 13066M   19281.93190531 +.00000172 +00000-0 +35265-4 0  9998
2 39427 097.6901 252.4538 0114044 165.4173 195.0370 14.67886834314614
GOMX 1
1 39430U 13066Q   19281.93766947 +.00000167 +00000-0 +39679-4 0  9999
2 39430 097.7580 231.1619 0149842 260.4446 097.9795 14.59293640312975
HUMSAT D
1 39433U 13066T   19281.66377808  .00000496  00000-0  53609-4 0  9990
2 39433  97.5426 324.5292 0029252 287.8151  71.9878 14.92264588319772
CUBEBUG 2
1 39440U 13066AA  19281.88907464 +.00000190 +00000-0 +33101-4 0  9995
2 39440 097.6096 273.7412 0081712 080.6653 280.3785 14.75894302315322
FUNCUBE 1
1 39444U 13066AE  19281.92364289 +.00000235 +00000-0 +35184-4 0  9999
2 39444 097.5601 291.1698 0058584 020.8601 339.4984 14.81985014315962
UWE-3
1 39446U 13066AG  19281.90404922 +.00000190 +00000-0 +31668-4 0  9991
2 39446 097.5855 280.8888 0071269 054.6063 306.1779 14.78429679315254
SPROUT
1 39770U 14029E   19281.77601134  .00000435  00000-0  54079-4 0  9993
2 39770  97.8882  24.3741 0010017  78.9015 281.3316 14.87447046291494
UNISAT 6
1 40012U 14033C   19281.68461289 +.00000156 +00000-0 +30491-4 0  9996
2 40012 097.7409 143.3829 0059723 096.2535 264.5482 14.74014556285183
DUCHIFAT 1
1 40021U 14033M   19281.77818911  .00000251  00000-0  31436-4 0  9990
2 40021  97.9242 206.7443 0014059  44.7810 315.4540 14.90698129288246
QB50P1
1 40025U 14033R   19281.72593613  .00000266  00000-0  34292-4 0  9997
2 40025  97.9035 201.2165 0013669  54.4097 305.8391 14.88993602287991
CHUBUSAT 1
1 40300U 14070C   19281.81965192  .00000456  00000-0  22754-4 0  9990
2 40300  97.3170 353.1202 0020856  24.6068 107.9006 15.22194396273073
NUDT-PHONESAT
1 40900U 15049B   19281.73545265  .00001804  00000-0  79324-4 0  9992
2 40900  97.4380 289.9918 0013688 145.6333 302.5294 15.23110705224719
ZDPS 2A
1 40901U 15049C   19281.94513594 +.00000770 +00000-0 +41307-4 0  9997
2 40901 097.4627 286.1642 0013558 165.9259 251.7398 15.17861953224266
ZDPS 2B
1 40902U 15049D   19281.85561064 +.00001035 +00000-0 +54579-4 0  9993
2 40902 097.4578 283.4816 0013778 163.4694 280.9455 15.17724158224224
XW-2A
1 40903U 15049E   19281.92114788 +.00001777 +00000-0 +43328-4 0  9992
2 40903 097.3270 325.2658 0015216 097.7675 027.7310 15.42162966227545
KAITUO 1A
1 40904U 15049F   19281.91926706 +.00000499 +00000-0 +29858-4 0  9995
2 40904 097.4716 282.0318 0014567 173.0628 274.3475 15.15453818223995
OBJECT G
1 40905U 15049G   19281.94269236 +.00000231 +00000-0 +16129-4 0  9998
2 40905 097.4761 279.4893 0015606 168.8928 252.9270 15.14355921223860
XW-2C
1 40906U 15049H   19281.95679704 +.00000290 +00000-0 +18629-4 0  9997
2 40906 097.4719 282.2022 0014785 164.4786 249.9306 15.15771347224009
XW-2D
1 40907U 15049J   19281.85986612  .00000705  00000-0  40140-4 0  9990
2 40907  97.4693 281.7869 0014567 161.6530 283.3468 15.15970559224005
LILACSAT 2
1 40908U 15049K   19281.95636869 +.00000008 +00000-0 +40307-5 0  9990
2 40908 097.4833 280.5855 0015961 169.3305 244.5405 15.13858813223799
XW-2F
1 40910U 15049M   19281.91310426 +.00000724 +00000-0 +39434-4 0  9990
2 40910 097.4665 284.0095 0015421 154.0536 295.4069 15.17452168224034
XW-2B
1 40911U 15049N   19281.76581995  .00000292  00000-0  18694-4 0  9990
2 40911  97.4718 282.3629 0014253 162.6046 282.8859 15.15895681223889
KAITUO 1B
1 40912U 15049P   19281.77247931  .00000792  00000-0  40100-4 0  9993
2 40912  97.4515 287.6890 0015872 136.9034 309.8097 15.19782356224335
TIANWANG 1C (TW-1C)
1 40926U 15051B   19281.82489196  .00012351  00000-0  16721-3 0  9993
2 40926  97.1242 327.9243 0006363 326.9749 121.6797 15.57821506227606
TIANWANG 1B (TW-1B)
1 40927U 15051C   19281.90095201 +.00011591 +00000-0 +16732-3 0  9990
2 40927 097.1271 327.1401 0006662 339.9017 106.5950 15.56098798227455
